Showing default

STARCLOUD-1, 66303

Orbit data source: Space-Track

STARCLOUD-1, 66303 is an American payload satellite in LEO that was launched on Sun, 02 Nov 2025 UTC via an FALCON 9 launch vehicle from the Air Force Eastern Test Range (AFETR). Payload-class satellites include a variety of spacecraft equipped with specific instruments for various scientific and technological missions. These include communications satellites like Starlink; space stations such as the ISS; scientific satellites like the Hubble; Earth observation satellites from companies like Planet Labs, Umbra, and HawkEye 360; GPS; miniature CubeSats for education and research; and military/defense satellites.

Loading next visibility...
Identifier
66303, 2025-248L
Orbit
LEO
Country
Flag of USUS
Related business
Manufacturer
Astro Digital
Mission
Operational Commercial Technology
Bus & Motor
CORVUS MICRO, Unknown motor
Mass
50 kg wet, 50 kg dry
Launch date (UTC)
2025-11-02 (8 months ago)
Launch vehicle
FALCON 9
Launch site
Air Force Eastern Test Range (AFETR)
Object type
Payload
Rocket body
Debris
Shape & HBR
Box, 0.3 m
Radar Cross Section
0.225 m², Medium (>0.1 m² and < 1m²)

Expand to show TLE details & history
Last TLE update: 16 hours ago

TLE from 16 hours ago
0 STARCLOUD-1
1 66303U 25248L   26171.17970533  .00003703  00000-0  17508-3 0  9998
2 66303  45.4007 104.2813 0004400  51.4505 308.6776 15.21298519 34992
Epoch: 2026-06-20T04:18Z
TLE epoch observation values (Epoch: 2026-06-20T04:18:46.540Z)
Latitude
0.00001°
Longitude
131.18935°
Altitude
500.075 km
Speed
7.617 km/s
True Right ascension
06h 57m 07s
True Declination
0° 00' 00"
Sunlit
Object was in daylight at epoch
Visualization orbit readout
Latitude
Unknown
Longitude
Unknown
Altitude
Unknown
Speed
Unknown
Apparent Right ascension
Unknown
Apparent Declination
Unknown
Sunlit
N/A
Visualization observer readout
Local Sidereal Time
07:17:45
Azimuth
Unknown
Elevation
Unknown
Doppler factor
Unknown
Orbital elements
Apogee altitude
506.488 km
Perigee altitude
500.433 km
Semi-major axis
6,881.597 km
Eccentricity
0.00044
Inclination
45.4007°
RAAN
104.2813°
Arg. of periapsis
51.4505°
True anomaly
308.63822°
Mean anomaly
308.6776°
Eccentric anomaly
308.65791°
Mean motion
3.80198 °/min
Orbital period
94.69 mins
BSTAR
0.00017508
Loading maneuver chart data...
Computing Atmospheric mass density...
Loading historical data...
Loading historical data...
Loading historical data...
Loading historical data...
Loading historical data...
Loading historical data...
Loading historical data...

Documentation

Showing up to 5 results
|